ROMMA est une association bénévole à but non lucratif. Votre soutien est indispensable : ADHERER à ROMMA ou FAIRE un DON

Le Versoud - (38, Isère)

Vallée du Grésivaudan (220 m)   Longitude: 05° 51' 44" E   Latitude: 45° 13' 06" N Station partenaire n°6
 

Détail journalier du     <<     >>

Température Humidité Pression Vent Dir Rafale Dir. rafale Ensol.
Heure (°C) (%) (hPa) (km/h) (km/h) (min)
01:00 17.768101300---0
02:00 16.874101200---0
03:00 16.375101200---0
04:00 16.178101200---0
05:00 15.678101100---0
06:00 15.477101202NO0
07:00 15.477101102NO0
08:00 16.774101402NO0
09:00 15.585101606NNO0
10:00 15.886101602NO0
11:00 16.880101506NO0
12:00 19.37310123NO19SSO0
13:00 20.46810142O23SSO0
14:00 21.66110123NE26NE20
15:00 22.85810102NNE21NE5
16:00 23.75410101N16NNO0
17:00 24.15710091NNO16N20
18:00 24.15810071NE15NE5
19:00 23.76010071NE21NNE10
20:00 23.56010071---19SSO5
21:00 22.2661007011S5
22:00 20.774100802SSE0
23:00 19.278100900---0
minuit 18.281101000---0

Graphique du 14-06-2019

 

Serveur OMMA